CNK633 CYUL-CYBC

Flight info

Callsign CNK633
Flight time 0h 54m
Altitude 40000
Route ANTEG DCT OBRON DCT MOBUB DCT EBMOS DCT IPTAL
Aircraft LJ35/M-SDFGILRWY/SB1

Departure

Time 2026-05-04 02:29
Airport Montreal / Pierre Elliott Trudeau International Airport (CYUL)

Arrival

Time 2026-05-04 03:24
Airport Baie-Comeau Airport (CYBC)
Time Latitude Longitude Altitude Speed Heading
2026-05-04 02:07 45.47513 -73.71341 127 ft 0 kts 103°
2026-05-04 02:25 45.47512 -73.71336 127 ft 1 kts 105°
2026-05-04 02:25 45.47498 -73.71351 126 ft 6 kts 284°
2026-05-04 02:25 45.47528 -73.71406 125 ft 7 kts 314°
2026-05-04 02:26 45.47552 -73.71422 122 ft 5 kts 15°
2026-05-04 02:26 45.47572 -73.71420 124 ft 0 kts 343°
2026-05-04 02:27 45.47586 -73.71434 123 ft 7 kts 315°
2026-05-04 02:27 45.47626 -73.71495 116 ft 11 kts 312°
2026-05-04 02:27 45.47678 -73.71580 119 ft 8 kts 311°
2026-05-04 02:28 45.47680 -73.71633 117 ft 0 kts 223°
2026-05-04 02:28 45.47602 -73.71736 118 ft 60 kts 222°
2026-05-04 02:29 45.47029 -73.72470 174 ft 156 kts 224°
2026-05-04 02:29 45.46083 -73.73651 921 ft 203 kts 224°
2026-05-04 02:29 45.45046 -73.74954 1980 ft 186 kts 225°
2026-05-04 02:29 45.44192 -73.76241 2867 ft 183 kts 245°
2026-05-04 02:30 45.44010 -73.78096 3833 ft 202 kts 281°
2026-05-04 02:30 45.44729 -73.79817 5175 ft 206 kts 317°
2026-05-04 02:30 45.46065 -73.80591 6772 ft 215 kts 351°
2026-05-04 02:30 45.47547 -73.80156 8359 ft 225 kts 23°
2026-05-04 02:31 45.48757 -73.78748 10059 ft 225 kts 40°
2026-05-04 02:31 45.49845 -73.77204 11658 ft 216 kts 38°
2026-05-04 02:31 45.50947 -73.75815 13208 ft 207 kts 33°
2026-05-04 02:31 45.52041 -73.74579 14563 ft 200 kts 30°
2026-05-04 02:32 45.53148 -73.73412 15852 ft 197 kts 28°
2026-05-04 02:32 45.54340 -73.72200 17131 ft 224 kts 28°
2026-05-04 02:32 45.55655 -73.70901 18449 ft 234 kts 28°
2026-05-04 02:32 45.57039 -73.69539 19466 ft 249 kts 28°
2026-05-04 02:33 45.58489 -73.68105 20574 ft 258 kts 29°
2026-05-04 02:33 45.59990 -73.66621 21786 ft 265 kts 29°
2026-05-04 02:33 45.61524 -73.65101 23070 ft 273 kts 29°
2026-05-04 02:33 45.63139 -73.63513 23962 ft 289 kts 29°
2026-05-04 02:34 45.64829 -73.61845 24854 ft 301 kts 29°
2026-05-04 02:34 45.66559 -73.60131 25813 ft 311 kts 30°
2026-05-04 02:34 45.68238 -73.58465 26780 ft 317 kts 30°
2026-05-04 02:35 45.68881 -73.57827 27153 ft 320 kts 30°
2026-05-04 02:35 45.70724 -73.56000 28222 ft 325 kts 30°
2026-05-04 02:35 45.72594 -73.54144 29334 ft 329 kts 30°
2026-05-04 02:35 45.74485 -73.52265 30356 ft 332 kts 30°
2026-05-04 02:36 45.76392 -73.50368 31273 ft 335 kts 30°
2026-05-04 02:36 45.78316 -73.48455 32202 ft 337 kts 31°
2026-05-04 02:36 45.80269 -73.46512 32873 ft 347 kts 31°
2026-05-04 02:36 45.82277 -73.44517 33518 ft 355 kts 32°
2026-05-04 02:37 45.84337 -73.42462 34128 ft 362 kts 32°
2026-05-04 02:37 45.86359 -73.40244 34674 ft 371 kts 38°
2026-05-04 02:37 45.88253 -73.37725 35093 ft 382 kts 44°
2026-05-04 02:37 45.90065 -73.34885 35568 ft 389 kts 46°
2026-05-04 02:38 45.91929 -73.32024 36059 ft 395 kts 45°
2026-05-04 02:38 45.93829 -73.29141 36574 ft 399 kts 45°
2026-05-04 02:38 45.95746 -73.26226 37111 ft 403 kts 46°
2026-05-04 02:38 45.97675 -73.23284 37604 ft 407 kts 46°
2026-05-04 02:39 45.99628 -73.20304 38081 ft 411 kts 46°
2026-05-04 02:39 46.01597 -73.17286 38548 ft 414 kts 46°
2026-05-04 02:39 46.03571 -73.14248 38922 ft 417 kts 46°
2026-05-04 02:39 46.05554 -73.11186 39309 ft 419 kts 46°
2026-05-04 02:40 46.07545 -73.08110 39683 ft 420 kts 46°
2026-05-04 02:40 46.09567 -73.04982 39768 ft 431 kts 47°
2026-05-04 02:40 46.11612 -73.01815 39805 ft 443 kts 47°
2026-05-04 02:40 46.13746 -72.98505 39817 ft 458 kts 47°
2026-05-04 02:41 46.15893 -72.95028 39827 ft 470 kts 50°
2026-05-04 02:41 46.17917 -72.91244 39831 ft 482 kts 54°
2026-05-04 02:41 46.21541 -72.82903 39831 ft 496 kts 59°
2026-05-04 02:42 46.25124 -72.74316 39830 ft 499 kts 59°
2026-05-04 02:42 46.28646 -72.65850 39825 ft 486 kts 59°
2026-05-04 02:43 46.32084 -72.57536 39815 ft 478 kts 60°
2026-05-04 02:43 46.35465 -72.49325 39802 ft 477 kts 60°
2026-05-04 02:44 46.38854 -72.41069 39808 ft 476 kts 60°
2026-05-04 02:44 46.42228 -72.32820 39811 ft 475 kts 60°
2026-05-04 02:45 46.45591 -72.24576 39810 ft 475 kts 60°
2026-05-04 02:45 46.48954 -72.16305 39814 ft 476 kts 60°
2026-05-04 02:46 46.52316 -72.08028 39813 ft 476 kts 59°
2026-05-04 02:46 46.56302 -72.00345 39813 ft 476 kts 47°
2026-05-04 02:47 46.61169 -71.93887 39819 ft 477 kts 40°
2026-05-04 02:47 46.66225 -71.87626 39801 ft 477 kts 40°
2026-05-04 02:48 46.71269 -71.81357 39805 ft 476 kts 40°
2026-05-04 02:48 46.76317 -71.75063 39808 ft 477 kts 40°
2026-05-04 02:49 46.81368 -71.68750 39807 ft 478 kts 41°
2026-05-04 02:49 46.86378 -71.62470 39810 ft 478 kts 41°
2026-05-04 02:50 46.91425 -71.56128 39802 ft 478 kts 41°
2026-05-04 02:50 46.96463 -71.49783 39794 ft 478 kts 41°
2026-05-04 02:51 47.01510 -71.43403 39788 ft 479 kts 41°
2026-05-04 02:51 47.06573 -71.36989 39780 ft 479 kts 41°
2026-05-04 02:52 47.11573 -71.30642 39777 ft 479 kts 41°
2026-05-04 02:52 47.16603 -71.24238 39775 ft 479 kts 41°
2026-05-04 02:53 47.21633 -71.17815 39767 ft 479 kts 41°
2026-05-04 02:53 47.26663 -71.11373 39771 ft 479 kts 41°
2026-05-04 02:54 47.31689 -71.04926 39772 ft 479 kts 41°
2026-05-04 02:54 47.36715 -70.98462 39767 ft 479 kts 41°
2026-05-04 02:55 47.44221 -70.88771 39767 ft 480 kts 41°
2026-05-04 02:56 47.49234 -70.82279 39765 ft 480 kts 41°
2026-05-04 02:56 47.54255 -70.75757 39771 ft 480 kts 41°
2026-05-04 02:57 47.59274 -70.69222 39768 ft 480 kts 41°
2026-05-04 02:57 47.64289 -70.62678 39776 ft 480 kts 42°
2026-05-04 02:58 47.69235 -70.56196 39623 ft 462 kts 42°
2026-05-04 02:58 47.71629 -70.53057 39154 ft 458 kts 42°
2026-05-04 02:58 47.74021 -70.49917 38580 ft 458 kts 42°
2026-05-04 02:58 47.76412 -70.46772 37918 ft 459 kts 42°
2026-05-04 02:59 47.78813 -70.43612 37263 ft 462 kts 43°
2026-05-04 02:59 47.81160 -70.40443 36652 ft 463 kts 44°
2026-05-04 02:59 47.83527 -70.37173 36045 ft 465 kts 44°
2026-05-04 02:59 47.85900 -70.33868 35400 ft 469 kts 45°
2026-05-04 03:00 47.88293 -70.30529 34779 ft 473 kts 45°
2026-05-04 03:00 47.90705 -70.27168 34174 ft 475 kts 45°
2026-05-04 03:00 47.93127 -70.23793 33537 ft 478 kts 45°
2026-05-04 03:00 47.95566 -70.20390 32819 ft 481 kts 45°
2026-05-04 03:01 47.97191 -70.18126 32365 ft 483 kts 46°
2026-05-04 03:01 47.99645 -70.14701 31698 ft 484 kts 46°
2026-05-04 03:01 48.02112 -70.11256 31022 ft 486 kts 47°
2026-05-04 03:01 48.04574 -70.07812 30354 ft 482 kts 47°
2026-05-04 03:02 48.07019 -70.04404 29628 ft 477 kts 47°
2026-05-04 03:02 48.09426 -70.01041 28745 ft 470 kts 49°
2026-05-04 03:02 48.11813 -69.97710 27944 ft 466 kts 48°
2026-05-04 03:02 48.14169 -69.94434 27163 ft 461 kts 47°
2026-05-04 03:03 48.16497 -69.91155 26400 ft 457 kts 47°
2026-05-04 03:03 48.18798 -69.87901 25655 ft 453 kts 47°
2026-05-04 03:03 48.21080 -69.84669 25003 ft 449 kts 46°
2026-05-04 03:03 48.23343 -69.81460 24397 ft 445 kts 46°
2026-05-04 03:04 48.25583 -69.78282 23807 ft 441 kts 46°
2026-05-04 03:04 48.27777 -69.75166 23201 ft 438 kts 45°
2026-05-04 03:04 48.29981 -69.72039 22504 ft 434 kts 45°
2026-05-04 03:04 48.32169 -69.68932 21827 ft 431 kts 45°
2026-05-04 03:05 48.34342 -69.65845 21157 ft 427 kts 45°
2026-05-04 03:05 48.36493 -69.62786 20512 ft 423 kts 45°
2026-05-04 03:05 48.38624 -69.59752 19867 ft 420 kts 45°
2026-05-04 03:05 48.40732 -69.56746 19245 ft 414 kts 45°
2026-05-04 03:06 48.42793 -69.53799 18638 ft 403 kts 45°
2026-05-04 03:06 48.44800 -69.50923 18036 ft 394 kts 45°
2026-05-04 03:06 48.46769 -69.48096 17340 ft 386 kts 45°
2026-05-04 03:06 48.48693 -69.45331 16769 ft 378 kts 44°
2026-05-04 03:07 48.50545 -69.42672 16329 ft 368 kts 44°
2026-05-04 03:07 48.52405 -69.39996 15837 ft 362 kts 44°
2026-05-04 03:07 48.54213 -69.37395 15368 ft 357 kts 44°
2026-05-04 03:07 48.55973 -69.34863 14914 ft 353 kts 44°
2026-05-04 03:08 48.57745 -69.32310 14458 ft 350 kts 44°
2026-05-04 03:08 48.59499 -69.29781 14022 ft 347 kts 44°
2026-05-04 03:08 48.61241 -69.27268 13586 ft 344 kts 44°
2026-05-04 03:08 48.62961 -69.24781 13113 ft 340 kts 44°
2026-05-04 03:09 48.64659 -69.22326 12641 ft 335 kts 44°
2026-05-04 03:09 48.66325 -69.19914 12182 ft 328 kts 44°
2026-05-04 03:09 48.67956 -69.17547 11734 ft 322 kts 44°
2026-05-04 03:09 48.69566 -69.15211 11286 ft 318 kts 44°
2026-05-04 03:10 48.71158 -69.12901 10848 ft 315 kts 44°
2026-05-04 03:10 48.72717 -69.10635 10418 ft 307 kts 44°
2026-05-04 03:10 48.74235 -69.08424 10010 ft 299 kts 44°
2026-05-04 03:10 48.75721 -69.06260 9594 ft 293 kts 44°
2026-05-04 03:11 48.77159 -69.04168 9183 ft 288 kts 44°
2026-05-04 03:11 48.78615 -69.02046 8769 ft 285 kts 44°
2026-05-04 03:11 48.80022 -68.99994 8368 ft 282 kts 44°
2026-05-04 03:11 48.81431 -68.97935 7965 ft 280 kts 44°
2026-05-04 03:12 48.82827 -68.95889 7568 ft 278 kts 44°
2026-05-04 03:12 48.84215 -68.93861 7183 ft 276 kts 43°
2026-05-04 03:12 48.85595 -68.91836 6787 ft 275 kts 43°
2026-05-04 03:12 48.86971 -68.89820 6418 ft 274 kts 43°
2026-05-04 03:13 48.88335 -68.87809 6029 ft 272 kts 43°
2026-05-04 03:13 48.89672 -68.85848 5644 ft 270 kts 43°
2026-05-04 03:13 48.91027 -68.83872 5251 ft 269 kts 43°
2026-05-04 03:13 48.92367 -68.81906 4921 ft 265 kts 43°
2026-05-04 03:14 48.93685 -68.79967 4606 ft 261 kts 43°
2026-05-04 03:14 48.94981 -68.78055 4296 ft 257 kts 44°
2026-05-04 03:14 48.96260 -68.76167 3979 ft 255 kts 43°
2026-05-04 03:14 48.97523 -68.74303 3662 ft 252 kts 44°
2026-05-04 03:15 48.98781 -68.72446 3346 ft 251 kts 44°
2026-05-04 03:15 49.00031 -68.70602 3034 ft 249 kts 44°
2026-05-04 03:15 49.01273 -68.68767 2716 ft 248 kts 44°
2026-05-04 03:15 49.02505 -68.66944 2417 ft 246 kts 44°
2026-05-04 03:16 49.03699 -68.65177 2377 ft 228 kts 44°
2026-05-04 03:16 49.04772 -68.63587 2349 ft 202 kts 44°
2026-05-04 03:16 49.05749 -68.62143 2337 ft 191 kts 44°
2026-05-04 03:16 49.06687 -68.60741 2338 ft 187 kts 45°
2026-05-04 03:17 49.07604 -68.59352 2364 ft 184 kts 44°
2026-05-04 03:17 49.08479 -68.57934 2343 ft 185 kts 53°
2026-05-04 03:17 49.09055 -68.56186 2290 ft 182 kts 72°
2026-05-04 03:17 49.09327 -68.54321 2271 ft 178 kts 81°
2026-05-04 03:18 49.09499 -68.52478 2276 ft 176 kts 82°
2026-05-04 03:18 49.09673 -68.50659 2254 ft 173 kts 81°
2026-05-04 03:18 49.09877 -68.48851 2248 ft 174 kts 79°
2026-05-04 03:18 49.10105 -68.47042 2252 ft 173 kts 79°
2026-05-04 03:19 49.10340 -68.45235 2258 ft 174 kts 79°
2026-05-04 03:19 49.10567 -68.43416 2250 ft 175 kts 80°
2026-05-04 03:19 49.10780 -68.41572 2242 ft 177 kts 80°
2026-05-04 03:19 49.10986 -68.39732 2154 ft 172 kts 80°
2026-05-04 03:20 49.11181 -68.38030 1959 ft 155 kts 80°
2026-05-04 03:20 49.11367 -68.36494 1778 ft 140 kts 79°
2026-05-04 03:20 49.11523 -68.35208 1658 ft 117 kts 81°
2026-05-04 03:20 49.11660 -68.34028 1505 ft 109 kts 81°
2026-05-04 03:21 49.11787 -68.32888 1398 ft 111 kts 81°
2026-05-04 03:21 49.11923 -68.31721 1265 ft 113 kts 81°
2026-05-04 03:21 49.12067 -68.30525 1123 ft 115 kts 82°
2026-05-04 03:21 49.12200 -68.29332 974 ft 109 kts 80°
2026-05-04 03:22 49.12333 -68.28225 849 ft 106 kts 79°
2026-05-04 03:22 49.12469 -68.27117 720 ft 105 kts 80°
2026-05-04 03:22 49.12611 -68.26006 593 ft 107 kts 82°
2026-05-04 03:22 49.12745 -68.24890 462 ft 107 kts 83°
2026-05-04 03:23 49.12870 -68.23748 360 ft 109 kts 83°
2026-05-04 03:23 49.12996 -68.22610 219 ft 108 kts 84°
2026-05-04 03:23 49.13128 -68.21468 89 ft 109 kts 82°
2026-05-04 03:23 49.13241 -68.20504 75 ft 57 kts 79°
2026-05-04 03:24 49.13279 -68.20187 72 ft 22 kts 79°
2026-05-04 03:24 49.13303 -68.19986 70 ft 15 kts 79°
2026-05-04 03:24 49.13347 -68.19920 68 ft 11 kts
2026-05-04 03:24 49.13423 -68.19940 65 ft 9 kts 350°
2026-05-04 03:25 49.13444 -68.19945 72 ft 0 kts 350°
2026-05-04 03:26 49.13466 -68.19952 65 ft 7 kts 349°
2026-05-04 03:26 49.13519 -68.19966 71 ft 8 kts 350°
2026-05-04 03:26 49.13572 -68.19979 66 ft 7 kts 338°
2026-05-04 03:27 49.13614 -68.20015 67 ft 5 kts 328°
2026-05-04 03:27 49.13616 -68.20016 70 ft 0 kts 328°